COSMOS 2539

Last updated on Jan. 17, 2020, 4:31 a.m. UTC

1 44457U 19048A   20016.42826994  .00000078  00000-0  00000+0 0  9993
2 44457   0.0348 146.6086 0001208 280.1055 214.7808  1.00275784  1728
UTC
Height (km)
Latitude
Longitude
Inclination
Orbital Period
UTC large
Height (km)
Speed (km/s)
/
Latitude / Longitude
Inclination (degrees)
Orbital Period (minutes)
Azimuth
Elevation
Range (km)
Doppler Factor
iOS Compass Heading
iOS Angle

Next 30 passes for location: Hong Kong

Rise time Rise Azimuth (degrees) Set time Set Azimuth (degrees) Duration Max altitude (degrees)

No matching passes for this satellites